This demonstration page uses our WeatherBlox Daily Observations layout. Learn more.

Hourly Observations for June 12, 2019

Temp ( °F °C ) Dew Point ( °F °C ) Humidity (%) Winds ( mph kmh ) Pressure ( in mb ) Visibility ( mi km ) Precip ( " mm )
12:15 am 00:15 Clear 64 18 52 11 64 64 NNE 5 7 30.12 1020 10 16.09344 0 0
12:35 am 00:35 Clear 64 18 52 11 64 64 NE 5 7 30.12 1020 10 16.09344 0 0
12:55 am 00:55 Clear 64 18 54 12 68 68 N 5 7 30.12 1020 10 16.09344 0 0
1:15 am 01:15 Clear 63 17 54 12 73 73 NNW 3 6 30.12 1020 10 16.09344 0 0
1:35 am 01:35 Clear 63 17 54 12 73 73 Calm 30.15 1021 10 16.09344 0 0
1:55 am 01:55 Clear 59 15 55 13 88 88 NNW 3 6 30.15 1021 10 16.09344 0 0
2:15 am 02:15 Clear 59 15 55 13 88 88 N 5 7 30.15 1021 10 16.09344 0 0
2:35 am 02:35 Clear 61 16 54 12 77 77 NNE 3 6 30.12 1020 10 16.09344 0 0
3:15 am 03:15 Clear 59 15 55 13 88 88 NNE 3 6 30.15 1021 10 16.09344 0 0
3:35 am 03:35 Clear 63 17 54 12 73 73 NNE 5 7 30.15 1021 10 16.09344 0 0
3:55 am 03:55 Clear 63 17 54 12 73 73 NNE 6 9 30.15 1021 10 16.09344 0 0
4:15 am 04:15 Clear 63 17 54 12 73 73 NNE 5 7 30.15 1021 10 16.09344 0 0
4:35 am 04:35 Clear 61 16 54 12 77 77 NNE 6 9 30.15 1021 10 16.09344 0 0
4:55 am 04:55 Clear 61 16 54 12 77 77 NNE 6 9 30.15 1021 10 16.09344 0 0
5:15 am 05:15 Clear 61 16 54 12 77 77 NNE 5 7 30.15 1021 10 16.09344 0 0
5:35 am 05:35 Clear 61 16 54 12 77 77 NNE 3 6 30.18 1022 10 16.09344 0 0
5:55 am 05:55 Sunny 61 16 54 12 77 77 NNE 5 7 30.18 1022 10 16.09344 0 0
6:15 am 06:15 Sunny 61 16 54 12 77 77 Calm 30.18 1022 10 16.09344 0 0
6:35 am 06:35 Sunny 61 16 54 12 77 77 Calm 30.18 1022 10 16.09344 0 0
6:55 am 06:55 Sunny 61 16 54 12 77 77 Calm 30.18 1022 10 16.09344 0 0
7:15 am 07:15 Sunny 61 16 54 12 77 77 Calm 30.21 1023 10 16.09344 0 0
7:35 am 07:35 Sunny 63 17 54 12 73 73 Calm 30.21 1023 10 16.09344 0 0
7:55 am 07:55 Sunny 63 17 54 12 73 73 NE 3 6 30.21 1023 10 16.09344 0 0
8:15 am 08:15 Sunny 64 18 54 12 68 68 NE 3 6 30.21 1023 10 16.09344 0 0
8:35 am 08:35 Sunny 64 18 54 12 68 68 Calm 30.21 1023 10 16.09344 0 0
8:55 am 08:55 Sunny 64 18 55 13 73 73 ENE 5 7 30.21 1023 10 16.09344 0 0
9:15 am 09:15 Sunny 66 19 55 13 68 68 Calm 30.21 1023 10 16.09344 0 0
9:35 am 09:35 Sunny 68 20 55 13 64 64 ESE 6 9 30.21 1023 10 16.09344 0 0
9:55 am 09:55 Sunny 68 20 54 12 60 60 E 7 11 30.21 1023 10 16.09344 0 0
10:15 am 10:15 Sunny 70 21 54 12 57 57 ESE 7 11 30.21 1023 10 16.09344 0 0
10:35 am 10:35 Sunny 70 21 54 12 57 57 E 8 13 30.18 1022 10 16.09344 0 0
10:55 am 10:55 Sunny 70 21 50 10 50 50 SE 14 22 30.18 1022 10 16.09344 0 0
11:15 am 11:15 Sunny 70 21 48 9 46 46 SE 9 15 30.18 1022 10 16.09344 0 0
11:35 am 11:35 Sunny 72 22 46 8 41 41 SE 9 15 30.18 1022 10 16.09344 0 0
11:55 am 11:55 Sunny 72 22 50 10 47 47 ESE 7 11 30.18 1022 10 16.09344 0 0
12:15 pm 12:15 Sunny 72 22 48 9 44 44 SE 6 9 30.18 1022 10 16.09344 0 0
12:35 pm 12:35 Sunny 73 23 48 9 41 41 S 9 15 30.18 1022 10 16.09344 0 0
12:55 pm 12:55 Sunny 73 23 46 8 38 38 SE 7 11 30.18 1022 10 16.09344 0 0
1:15 pm 13:15 Sunny 73 23 48 9 41 41 SSE 12 19 30.15 1021 10 16.09344 0 0
1:35 pm 13:35 Sunny 75 24 48 9 39 39 SSE 7 11 30.15 1021 10 16.09344 0 0
1:55 pm 13:55 Sunny 77 25 50 10 39 39 S 9 15 30.15 1021 10 16.09344 0 0
2:15 pm 14:15 Sunny 77 25 48 9 36 36 SE 7 11 30.12 1020 10 16.09344 0 0
2:35 pm 14:35 Sunny 77 25 50 10 39 39 SSE 9 15 30.12 1020 10 16.09344 0 0
2:55 pm 14:55 Sunny 77 25 50 10 39 39 SE 9 15 30.12 1020 10 16.09344 0 0
3:15 pm 15:15 Sunny 79 26 50 10 37 37 SE 12 19 30.09 1019 10 16.09344 0 0
3:35 pm 15:35 Sunny 79 26 50 10 37 37 S 12 19 30.09 1019 10 16.09344 0 0
3:55 pm 15:55 Sunny 79 26 50 10 37 37 S 12 19 30.09 1019 10 16.09344 0 0
4:15 pm 16:15 Sunny 77 25 50 10 39 39 SE 9 15 30.09 1019 10 16.09344 0 0
4:35 pm 16:35 Partly Cloudy 79 26 50 10 37 37 S 8 13 30.09 1019 10 16.09344 0 0
4:55 pm 16:55 Mostly Cloudy 79 26 52 11 39 39 SSE 8 13 30.09 1019 10 16.09344 0 0
5:15 pm 17:15 Partly Cloudy 79 26 50 10 37 37 S 9 15 30.06 1018 10 16.09344 0 0
5:35 pm 17:35 Partly Cloudy 77 25 52 11 42 42 SE 8 13 30.06 1018 10 16.09344 0 0
5:55 pm 17:55 Partly Cloudy 77 25 52 11 42 42 SE 8 13 30.06 1018 10 16.09344 0 0
6:15 pm 18:15 Partly Cloudy 77 25 52 11 42 42 SSE 10 17 30.03 1017 10 16.09344 0 0
6:35 pm 18:35 Mostly Cloudy 77 25 54 12 44 44 SSE 10 17 30.03 1017 10 16.09344 0 0
6:55 pm 18:55 Partly Cloudy 77 25 54 12 44 44 S 9 15 30.06 1018 10 16.09344 0 0
7:15 pm 19:15 Partly Cloudy 75 24 54 12 47 47 SSE 12 19 30.06 1018 10 16.09344 0 0
7:35 pm 19:35 Mostly Cloudy 73 23 54 12 50 50 SSE 8 13 30.06 1018 10 16.09344 0 0
7:55 pm 19:55 Mostly Cloudy 73 23 55 13 53 53 SSE 8 13 30.06 1018 10 16.09344 0 0
8:15 pm 20:15 Mostly Cloudy 73 23 54 12 50 50 SSE 9 15 30.06 1018 10 16.09344 0 0
8:35 pm 20:35 Cloudy 73 23 55 13 53 53 SSE 8 13 30.03 1017 10 16.09344 0 0
8:55 pm 20:55 Cloudy 72 22 55 13 57 57 SSE 13 20 30.03 1017 10 16.09344 0 0
9:15 pm 21:15 Cloudy 72 22 55 13 57 57 SSE 9 15 30.06 1018 10 16.09344 0 0
9:35 pm 21:35 Mostly Cloudy 72 22 55 13 57 57 SSE 10 17 30.03 1017 10 16.09344 0 0
9:55 pm 21:55 Partly Cloudy 70 21 55 13 60 60 SSE 10 17 30.03 1017 10 16.09344 0 0
10:15 pm 22:15 Partly Cloudy 70 21 55 13 60 60 SSE 6 9 30.03 1017 10 16.09344 0 0
10:35 pm 22:35 Partly Cloudy 70 21 55 13 60 60 SSE 9 15 30.03 1017 10 16.09344 0 0
10:55 pm 22:55 Mostly Cloudy 68 20 61 16 78 78 SSE 10 17 30 1016 10 16.09344 0 0
11:15 pm 23:15 Cloudy 66 19 61 16 83 83 S 7 11 30 1016 10 16.09344 0 0
11:35 pm 23:35 Cloudy 63 17 61 16 94 94 Calm 30.03 1017 10 16.09344 0 0
11:55 pm 23:55 Cloudy 63 17 63 17 100 100 Calm 30 1016 10 16.09344 0 0

Powered by AerisWeather